Gastonia, NC

6:39 PM EST on January 21, 2020 (GMT -0500)
Gastonia Municipal

Weather History for KAKH - November, 2019

Change the Weather History Date:

Wednesday, November 27, 2019

  Actual Average (KCLT) Record (KCLT)
Temperature  
Mean Temperature 58 °F -  
Max Temperature 66 °F 60 °F 77 °F (2001)
Min Temperature 48 °F 41 °F 18 °F (1903)
Degree Days  
Heating Degree Days 7    
Growing Degree Days 8 (Base 50)    
Moisture  
Dew Point 49 °F    
Average Humidity 79    
Maximum Humidity 87    
Minimum Humidity 66    
Precipitation  
Precipitation 0.12 in - - ()
Sea Level Pressure  
Sea Level Pressure 30.00 in    
Wind  
Wind Speed 3 mph ()    
Max Wind Speed 9 mph    
Max Gust Speed 18 mph    
Visibility 7.7 miles    
Events Rain    
Averages and records for this station are not official NWS values.
T = Trace of Precipitation, MM = Missing Value Source: Averaged Metar Reports

Daily Weather History Graph

Daily Weather History Graph

Search for Another Location

Airport or City:

Astronomy

Nov. 27, 2019 Rise Set
Actual Time 7:10 AM EST 5:13 PM EST
Civil Twilight 6:43 AM EST 5:40 PM EST
Nautical Twilight 6:12 AM EST 6:12 PM EST
Astronomical Twilight 5:41 AM EST 6:42 PM EST
Moon 8:06 AM EST (11/27) 6:19 PM EST (11/27)
Length of Visible Light 10h 57m
Length of Day
10h 02m
New Moon, 1% of the Moon is Illuminated
Nov 27
New Moon
Dec 4
First Quarter
Dec 12
Full
Dec 18
Last Quarter
Dec 26
New

Hourly Weather History & Observations

Time (EST) Temp. Dew Point Humidity Pressure Visibility Wind Dir Wind Speed Gust Speed Precip Events Conditions
2:54 AM 51.1 °F 42.1 °F 71% 30.03 in 10.0 mi SW 3.5 mph - N/A   Clear
3:54 AM 51.1 °F 42.1 °F 71% 30.03 in 10.0 mi Calm Calm - N/A   Overcast
4:54 AM 53.1 °F 42.1 °F 66% 30.00 in 10.0 mi SSW 3.5 mph - N/A   Mostly Cloudy
5:54 AM 53.1 °F 43.0 °F 69% 29.99 in 10.0 mi South 3.5 mph - N/A   Overcast
6:54 AM 54.0 °F 43.0 °F 66% 30.00 in 10.0 mi SSW 3.5 mph - N/A   Overcast
7:54 AM 54.0 °F 45.0 °F 72% 30.01 in 10.0 mi South 3.5 mph - 0.00 in   Overcast
8:17 AM 54.0 °F 45.0 °F 72% 30.01 in 9.0 mi SSE 3.5 mph - 0.00 in Rain Light Rain
8:39 AM 53.1 °F 46.9 °F 80% 30.03 in 1.8 mi Calm Calm - 0.03 in Rain Rain
8:54 AM 52.0 °F 48.0 °F 86% 30.04 in 3.0 mi Calm Calm - 0.05 in Rain Rain
9:00 AM 52.0 °F 48.0 °F 86% 30.04 in 1.8 mi NW 3.5 mph - 0.02 in Rain Heavy Rain
9:16 AM 52.0 °F 46.9 °F 83% 30.03 in 2.5 mi Calm Calm - 0.06 in Rain Light Rain
9:23 AM 52.0 °F 48.0 °F 86% 30.03 in 5.0 mi Calm Calm - 0.06 in Rain Light Rain
9:54 AM 53.1 °F 48.9 °F 86% 30.04 in 7.0 mi Calm Calm - 0.07 in   Overcast
10:43 AM 54.0 °F 50.0 °F 86% 30.01 in 7.0 mi Calm Calm - N/A   Overcast
10:54 AM 54.0 °F 50.0 °F 86% 30.01 in 7.0 mi SSW 4.6 mph - N/A   Overcast
11:42 AM 55.9 °F 51.1 °F 84% 30.00 in 7.0 mi SW 6.9 mph - N/A   Overcast
11:54 AM 55.9 °F 51.1 °F 84% 29.99 in 7.0 mi SW 5.8 mph - N/A   Overcast
12:54 PM 57.0 °F 53.1 °F 87% 29.96 in 6.0 mi SW 9.2 mph - N/A   Overcast
1:54 PM 60.1 °F 55.0 °F 83% 29.92 in 6.0 mi SSW 9.2 mph - N/A   Haze
2:54 PM 64.0 °F 57.9 °F 80% 29.91 in 9.0 mi SW 9.2 mph 18.4 mph N/A   Overcast
3:30 PM 66.0 °F 59.0 °F 78% 29.91 in 10.0 mi SW 6.9 mph - N/A   Scattered Clouds
4:54 PM 64.9 °F 57.9 °F 78% 29.92 in 10.0 mi WSW 6.9 mph - N/A   Clear
6:54 PM 61.0 °F 54.0 °F 78% 29.97 in 10.0 mi Calm Calm - N/A   Clear
7:54 PM 57.9 °F 53.1 °F 84% 29.97 in 10.0 mi WSW 3.5 mph - N/A   Clear
8:54 PM 59.0 °F 48.0 °F 67% 29.99 in 10.0 mi West 4.6 mph - N/A   Clear
10:54 PM 50.0 °F 45.0 °F 83% 30.05 in 9.0 mi Calm Calm - N/A   Clear
11:54 PM 48.0 °F 43.0 °F 83% 30.06 in 10.0 mi Calm Calm - N/A   Clear